Wind_Speed
18 18 18 18 17 17 17 16 15 15 14 15 15 14 13 15 18 16 12 3 2 4 2 5 6 8 10 12 11 14 13 19 27 22 19 12 19 19 15 17 12 11 7 8 18
20 19 18 18 17 16 16 16 15 14 13 13 14 14 11 13 15 9 2 2 3 3 4 5 6 8 12 13 10 14 16 24 17 20 16 15 17 20 18 19 19 20 8 11 19
20 19 18 17 17 16 15 15 15 14 13 13 13 13 10 12 9 6 8 5 8 8 6 4 4 9 13 12 16 15 21 18 16 11 14 15 14 13 15 19 21 20 16 14 16
20 18 17 16 16 16 15 15 15 14 14 12 12 10 11 8 4 4 1 3 9 2 5 5 7 10 10 17 17 17 15 20 10 17 13 17 14 14 17 13 7 8 9 13 16
19 18 17 17 15 15 15 16 16 16 14 11 8 7 7 5 1 1 3 4 2 1 4 4 7 7 11 10 15 16 21 15 18 9 14 12 13 17 17 17 6 1 1 13 14
21 19 17 16 15 15 16 17 18 15 11 4 2 3 5 1 1 2 2 5 6 4 2 3 3 4 6 10 12 8 19 15 19 17 16 16 19 18 16 17 12 8 8 10 15
22 20 18 15 15 17 17 17 15 12 4 2 4 1 2 5 1 3 7 5 7 8 6 3 1 7 2 7 14 9 12 16 20 16 17 14 21 28 21 12 11 8 5 5 13
23 20 16 15 15 18 15 18 9 6 4 4 3 1 2 1 4 6 6 4 5 9 8 3 3 5 8 2 8 15 15 16 18 22 18 17 23 22 22 21 20 16 9 6 5
26 21 17 16 16 16 13 16 4 3 3 3 2 4 5 2 2 4 4 5 4 5 9 2 7 8 7 11 9 11 13 20 18 18 21 21 12 24 17 20 17 17 14 10 8
28 22 17 15 16 13 11 7 2 2 1 3 3 5 2 7 7 8 1 2 3 9 8 9 7 10 10 8 9 9 13 7 16 16 20 23 23 16 9 17 19 15 15 13 11
31 23 17 15 15 9 9 5 4 5 5 4 5 3 4 10 3 3 3 6 5 8 10 8 9 11 9 7 7 6 7 8 8 2 11 19 22 21 22 10 14 15 13 13 15
35 24 15 13 11 4 5 6 5 5 5 3 4 6 7 5 8 2 6 7 7 9 4 7 11 8 6 8 9 10 11 10 9 13 10 13 19 19 19 21 18 14 14 14 15
38 23 13 13 6 4 4 6 3 2 5 2 3 4 3 5 11 3 6 5 9 5 10 14 3 1 10 10 11 11 11 7 9 4 9 12 16 18 22 20 20 17 13 14 18
39 18 11 8 2 5 4 3 2 2 4 5 1 2 2 11 3 6 6 7 6 9 11 9 8 7 8 11 9 12 7 10 10 9 12 15 7 24 22 23 21 20 16 16 20
37 13 10 7 6 7 5 3 1 4 3 8 4 2 9 12 11 3 1 6 12 10 8 3 6 8 11 9 8 9 4 8 10 10 12 11 7 14 24 22 23 22 19 17 19
29 11 11 7 2 6 2 1 3 4 4 7 8 16 16 12 4 5 3 3 7 10 16 18 4 8 9 4 7 4 8 9 9 9 12 16 14 12 18 27 25 24 22 20 19
24 5 8 6 7 5 3 4 3 4 12 7 16 19 19 10 10 4 8 7 5 5 12 18 18 13 10 11 7 12 10 7 7 8 12 18 12 19 18 24 26 26 24 22 21
18 1 7 11 6 4 6 5 3 7 8 15 14 16 8 11 7 7 7 10 6 8 9 6 8 21 15 18 11 16 13 6 8 12 13 8 13 12 19 13 23 23 23 22 23
13 2 2 15 6 5 6 4 5 9 13 13 16 5 10 11 5 9 10 11 2 13 7 3 4 7 6 13 18 13 16 11 9 16 9 14 17 13 18 18 18 25 24 23 21
10 3 5 16 6 7 4 3 5 6 12 10 7 2 9 11 5 12 9 4 3 11 12 2 5 8 7 11 14 13 12 10 8 8 14 13 20 12 20 16 21 27 24 25 21
6 3 8 15 3 4 3 5 7 8 8 5 12 8 10 5 8 6 6 5 6 7 11 6 6 6 5 14 16 10 12 13 12 13 11 16 15 17 14 19 24 25 25 25 25
7 3 12 12 2 3 4 8 5 8 6 8 8 10 10 12 5 7 6 7 8 5 7 12 6 10 13 11 14 18 19 20 10 16 15 15 11 18 17 16 25 26 26 29 28
8 3 6 11 4 6 9 5 4 10 11 5 7 8 17 6 7 7 7 7 7 5 2 7 7 7 3 0 9 14 22 19 19 12 15 14 9 6 21 13 25 26 25 25 29
5 5 2 2 3 7 9 6 8 9 12 6 14 14 14 20 16 6 4 5 7 5 10 3 9 12 11 4 3 24 22 22 20 16 17 19 3 10 12 17 25 23 26 24 23
5 4 3 6 4 11 8 6 13 12 5 11 7 14 21 12 17 4 5 4 11 10 5 7 8 16 20 18 14 14 26 27 24 25 16 21 4 10 16 15 23 26 21 23 23
6 5 3 11 9 11 3 7 11 15 8 9 11 20 20 17 10 22 16 5 6 9 12 8 6 13 18 2 6 12 20 25 24 22 26 23 20 14 12 16 21 18 26 28 26
6 3 3 5 7 7 6 9 14 16 10 11 15 19 18 21 25 18 8 6 7 4 4 5 5 5 5 8 8 6 19 20 21 23 23 24 19 7 12 13 18 16 21 26 27
Wind_Direction
344 341 340 338 334 330 325 323 322 322 318 321 320 310 309 316 316 306 281 294 236 293 327 270 228 189 203 233 224 239 230 231 227 220 232 217 220 218 228 240 240 218 265 83 140
346 344 343 338 337 333 330 327 326 324 321 320 317 322 312 311 309 292 351 83 17 1 268 245 207 204 197 221 211 220 227 233 237 223 239 217 224 223 215 226 229 234 125 136 147
349 347 344 340 336 336 332 329 327 323 320 318 315 320 314 320 282 85 71 23 329 278 257 242 243 236 222 215 218 230 243 240 240 259 239 244 212 225 220 227 222 231 201 169 167
349 346 342 339 336 335 333 331 326 321 318 316 310 313 311 309 338 120 34 359 17 132 194 218 223 220 227 215 226 241 244 260 240 226 244 235 226 214 232 223 171 67 317 165 186
348 345 341 337 336 333 332 328 322 317 314 312 304 301 317 248 15 348 334 309 335 197 236 237 232 227 230 232 226 231 250 235 244 234 241 249 236 233 221 232 177 180 304 175 197
348 344 340 340 340 339 332 327 330 324 323 310 274 272 288 283 20 313 331 289 244 263 188 221 270 270 268 240 235 218 235 232 238 235 238 242 236 226 232 223 235 240 219 202 195
349 343 341 347 348 343 332 328 342 349 358 145 178 216 247 41 354 307 307 283 251 240 230 194 285 227 251 225 235 244 234 231 241 235 234 233 242 236 233 189 211 246 227 280 203
347 342 341 341 343 344 336 336 360 22 90 127 142 188 299 216 298 304 317 280 251 220 231 207 235 266 251 315 225 225 228 237 219 227 230 235 245 224 232 236 237 236 233 206 191
349 341 337 336 339 341 338 339 22 62 92 119 182 255 82 244 278 338 314 327 150 176 202 226 230 242 183 232 223 209 228 219 229 208 223 217 241 245 246 230 241 235 229 211 193
350 340 332 338 339 345 344 350 337 80 77 226 257 232 160 341 314 302 260 206 194 158 183 219 226 226 223 215 244 210 227 220 225 206 221 229 227 252 221 244 237 225 223 213 189
353 341 332 337 343 356 0 275 258 176 206 343 340 301 309 337 292 199 184 189 190 206 221 213 244 226 233 227 305 298 277 264 222 175 256 232 241 219 237 223 223 223 215 212 192
358 345 339 343 349 26 18 14 2 320 283 198 263 257 266 309 304 145 208 232 213 239 204 206 235 274 284 257 242 238 248 244 249 251 245 255 234 234 236 234 238 219 212 204 179
358 346 351 349 10 24 356 10 326 257 257 171 250 276 339 276 324 23 216 237 251 221 235 260 28 64 237 226 238 235 252 253 266 216 249 272 253 230 233 232 231 231 228 210 185
357 345 359 6 27 345 5 338 309 233 248 56 78 109 223 290 250 268 232 258 232 259 252 267 258 231 221 237 241 257 220 259 259 252 242 198 251 205 222 221 222 211 212 203 187
357 355 0 1 330 340 335 321 209 218 292 9 11 15 307 326 315 144 25 226 255 246 246 254 195 207 221 232 236 269 272 245 247 250 266 209 244 253 192 212 215 206 200 192 184
356 16 17 356 336 341 331 288 221 239 16 336 330 332 330 320 280 295 235 262 299 277 236 257 241 261 259 236 237 267 242 243 240 236 237 233 224 225 186 201 207 196 192 179 183
354 29 30 12 348 327 313 247 254 30 338 338 332 330 334 342 306 271 304 260 262 217 223 227 236 237 247 238 199 220 206 197 208 205 239 194 222 252 192 200 205 193 185 177 177
357 16 11 9 332 318 291 276 353 1 326 331 320 324 323 345 326 292 285 254 214 242 279 240 235 211 219 228 232 208 208 251 199 210 226 203 213 227 239 221 214 193 182 172 178
7 337 350 346 331 316 297 22 357 331 326 326 321 322 330 346 321 305 262 274 224 194 229 248 258 172 217 217 227 202 224 249 303 278 280 185 236 247 237 210 220 190 180 173 170
346 304 27 343 316 287 1 316 338 328 318 317 315 328 314 334 303 332 283 187 239 194 243 306 262 183 180 217 218 248 201 203 222 259 221 215 223 225 200 210 205 183 177 164 159
326 275 13 348 293 308 23 336 322 340 333 306 312 301 289 290 262 291 264 284 239 184 215 245 236 155 187 208 201 189 226 219 255 246 260 228 220 220 210 194 195 178 175 155 154
323 306 1 348 334 14 336 330 332 308 315 285 283 294 287 294 264 284 259 239 15 293 196 222 287 260 241 218 245 220 214 210 225 208 237 274 276 187 209 188 187 177 172 158 158
331 301 2 335 25 348 338 310 262 308 327 299 293 295 308 292 296 248 262 262 264 271 235 188 234 258 225 2 252 228 223 218 221 264 249 239 231 209 192 215 184 177 160 155 161
319 333 19 55 79 344 338 318 327 325 307 282 286 293 304 308 306 280 252 277 255 257 171 192 250 237 268 249 238 209 217 219 222 221 228 232 354 199 183 223 183 156 153 149 135
10 36 9 316 333 332 306 295 320 342 298 306 284 315 327 319 304 261 289 278 258 228 243 187 252 251 263 273 255 217 205 209 214 219 223 251 246 342 324 212 179 140 138 136 137
342 345 312 293 300 308 95 333 318 331 309 304 302 324 321 312 316 314 305 216 266 193 221 199 265 271 278 247 222 228 210 197 206 217 235 248 271 302 285 267 138 147 154 147 147
358 284 304 287 319 308 346 323 313 317 297 274 292 309 310 335 322 311 297 245 235 275 247 220 252 312 276 187 211 238 225 209 205 216 227 235 243 276 288 208 145 161 161 151 151
Height
827 824 821 818 815 813 811 808 806 804 801 799 797 795 792 790 787 784 780 781 781 779 778 777 775 771 773 768 765 764 761 744 732 737 731 719 732 719 717 723 719 718 721 727 739
825 822 819 816 814 811 809 806 803 801 799 797 795 793 790 788 786 780 780 780 780 779 778 774 770 769 764 765 763 762 754 736 720 723 728 721 727 720 725 727 726 720 723 734 742
823 820 817 814 812 809 806 803 801 799 797 795 793 791 789 787 781 775 781 780 780 779 778 776 773 768 763 760 760 758 749 733 724 730 727 724 726 714 723 725 717 718 717 732 740
822 819 815 812 810 807 804 801 799 796 794 793 791 790 787 785 769 779 780 780 779 777 778 775 771 766 762 759 756 762 749 743 734 735 736 733 724 722 725 715 708 719 723 729 735
821 817 814 811 808 805 802 799 796 794 792 790 789 789 786 779 775 781 780 780 780 778 774 771 768 763 761 755 752 759 750 749 745 737 739 731 731 729 721 716 716 723 727 728 735
819 815 812 809 806 802 799 796 793 791 789 788 788 788 787 774 780 780 779 779 778 776 775 771 766 765 761 758 757 748 749 746 743 738 737 739 731 724 722 719 722 724 724 725 728
817 813 810 807 804 800 797 794 791 789 787 787 787 789 787 778 780 779 778 777 777 776 772 772 771 767 762 760 756 752 759 752 744 739 737 735 737 723 716 711 721 724 725 723 722
815 811 808 805 802 798 795 792 790 789 787 787 788 789 779 779 779 778 776 774 775 775 775 773 772 766 763 757 758 757 754 748 735 736 732 738 728 717 712 716 720 720 721 724 723
813 809 805 802 799 797 794 790 790 789 788 788 789 786 772 778 777 776 776 773 773 775 775 775 771 763 762 759 754 747 742 744 733 725 730 732 729 715 703 707 714 714 716 717 723
810 806 802 799 797 794 792 789 788 789 789 789 787 785 773 774 774 774 774 773 770 770 772 771 765 759 753 751 745 737 743 733 733 723 726 724 728 714 709 709 710 711 711 712 721
807 802 799 797 795 792 791 788 785 782 783 780 778 776 774 775 772 770 771 771 768 766 763 765 762 755 743 746 746 748 745 738 728 722 727 721 722 714 710 709 708 706 709 710 715
805 799 796 794 792 791 790 787 788 789 779 778 777 777 775 775 767 766 770 767 765 761 761 766 760 753 754 753 755 751 748 742 734 730 733 725 720 712 707 707 705 705 707 709 709
803 797 794 793 791 791 790 790 789 788 778 771 772 772 770 773 765 765 767 762 762 764 770 759 748 759 758 755 755 748 747 740 740 728 729 731 723 714 704 702 701 702 700 700 703
802 796 793 792 792 790 787 789 789 788 774 767 767 768 769 766 764 762 762 761 758 760 757 751 743 755 758 756 751 748 740 746 745 741 728 714 708 696 699 696 695 696 700 696 698
799 795 793 790 791 787 791 789 788 787 768 765 764 767 762 768 763 760 762 758 759 759 760 749 751 754 754 751 749 747 744 743 740 736 727 717 723 679 683 694 686 687 692 691 694
799 796 793 792 791 791 789 788 788 776 777 767 761 763 759 758 760 759 760 762 758 761 755 749 746 749 745 747 750 746 748 742 737 729 732 714 712 680 675 679 675 675 685 688 693
798 796 793 792 791 789 788 785 773 782 768 769 768 760 760 757 758 760 759 763 762 764 752 751 748 748 749 749 746 749 747 737 739 731 718 693 709 687 659 662 662 666 677 684 692
796 795 794 794 791 789 786 771 780 776 776 771 769 762 764 759 757 757 756 754 760 765 747 744 749 742 740 745 737 744 740 724 746 724 703 695 704 680 664 654 656 660 669 680 689
796 796 795 793 789 788 778 788 790 787 780 778 769 772 764 763 773 764 747 743 741 759 750 741 739 733 737 736 737 737 744 726 740 712 699 683 684 668 662 664 658 658 666 678 688
799 795 794 792 789 786 780 798 786 784 782 779 780 780 776 772 778 762 749 735 742 747 742 739 742 730 731 735 733 735 732 748 742 732 715 682 678 676 666 666 662 658 668 677 690
800 789 795 791 789 777 791 789 786 780 783 781 773 775 771 780 776 767 757 738 738 741 743 737 739 733 736 735 729 739 739 731 722 711 704 691 673 651 649 657 660 655 664 679 690
803 786 795 791 782 786 791 793 796 782 778 777 775 768 771 771 773 767 758 749 748 744 744 740 736 730 723 721 720 722 724 722 729 717 705 688 668 633 643 644 647 651 659 676 690
805 797 797 793 798 797 790 789 790 785 780 778 772 763 760 772 771 768 763 751 748 749 750 745 740 729 729 740 733 726 717 715 718 719 711 695 670 633 641 644 642 646 658 674 688
809 797 791 796 804 805 800 786 786 781 780 777 770 764 760 756 751 763 761 753 752 752 753 755 734 723 718 725 740 727 720 713 719 723 712 688 670 659 654 651 641 648 667 677 697
816 812 819 798 792 803 800 794 784 784 779 775 765 758 755 757 753 753 758 758 753 748 749 753 734 717 709 706 709 705 707 706 715 708 711 683 674 679 671 643 639 662 682 693 705
824 823 813 807 805 799 802 788 788 784 786 771 766 759 756 752 748 746 750 756 744 737 743 740 729 712 702 708 715 703 689 692 698 697 695 693 686 680 670 657 658 680 684 689 700
835 832 829 806 800 795 790 793 790 785 776 772 768 760 749 739 738 734 741 742 739 729 726 725 721 715 707 713 710 711 687 682 686 689 690 688 683 677 677 654 675 685 688 689 700